Flag for U.S.A. Weather past 2 weeks in Downey, California, U.S.A.

Now
57 °F

Passing clouds.


Feels Like: 56 °F
Forecast: 52 / 63 °F
Wind: 6 mph from Southwest

Location: Long Beach Airport

Current Time: Feb 28, 2015 at 5:25:22 AM

Latest Report: Feb 28, 2015 at 4:53 AM


Visibility: 10 mi

Pressure: 29.77 "Hg

Humidity: 64%

Dew point: 45 °F

Location of DowneyLocation

Historic Weather in Downey — Graph

°F

Downey temperature yesterday

Maximum temperature yesterday: 64 °F (at 10:53 AM)
Minimum temperature yesterday: 54 °F (at 6:53 AM)
Average temperature yesterday: 60 °F

Past Weeks' High & Low Weather Summary

 TemperatureHumidityPressure
High87 °F (Feb 13, 11:53 AM)96% (Feb 23, 6:53 AM)30.24 "Hg (Feb 23, 6:53 AM)
Low45 °F (Feb 24, 5:53 AM)10% (Feb 13, 12:53 PM)29.75 "Hg (Feb 27, 6:53 PM)
Average61 °F68%30.00 "Hg
* Reported Feb 13 3:53 AM — Feb 28 3:53 AM, Downey, Weather by CustomWeather, © 2015

Note: Actual official high and low records may vary slightly from our data, if they occured in-between our weather recording intervals... More about our weather records

Advertising

Downey weather history for previous 24 hours

 ConditionsComfort  
Time TempWeatherWind HumidityBarometerVisibility
3:53 AM
Sat, Feb 28
57 °FClear.12 mph64%29.76 "Hg10 mi
2:53 AM57 °FPassing clouds.10 mph69%29.76 "Hg10 mi
1:53 AM58 °FPassing clouds.7 mph70%29.78 "Hg10 mi
12:53 AM59 °FPassing clouds.12 mph69%29.77 "Hg10 mi
11:53 PM
Fri, Feb 27
59 °FClear.6 mph69%29.76 "Hg10 mi
10:53 PM60 °FOvercast.7 mph67%29.77 "Hg10 mi
9:53 PM61 °FOvercast.7 mph67%29.78 "Hg10 mi
8:53 PM62 °FPassing clouds.9 mph67%29.77 "Hg10 mi
7:53 PM62 °FPartly cloudy.5 mph65%29.76 "Hg10 mi
6:53 PM62 °FPartly cloudy.8 mph67%29.75 "Hg10 mi
5:53 PM62 °FPassing clouds.12 mph70%29.76 "Hg10 mi
4:53 PM63 °FBroken clouds.9 mph70%29.76 "Hg10 mi
3:53 PM63 °FBroken clouds.10 mph68%29.77 "Hg10 mi
2:53 PM64 °FPartly sunny.8 mph65%29.77 "Hg10 mi
1:53 PM63 °FOvercast.9 mph70%29.78 "Hg10 mi
12:53 PM63 °FOvercast.10 mph68%29.80 "Hg10 mi
11:53 AM63 °FOvercast.8 mph65%29.83 "Hg10 mi
10:53 AM64 °FOvercast.7 mph65%29.85 "Hg10 mi
9:53 AM62 °FMore clouds than sun.3 mph70%29.86 "Hg10 mi
8:53 AM60 °FOvercast.5 mph72%29.85 "Hg10 mi
7:53 AM57 °FPartly sunny.No wind81%29.85 "Hg10 mi
6:53 AM54 °FPassing clouds.No wind86%29.82 "Hg10 mi
5:53 AM55 °FPassing clouds.No wind83%29.83 "Hg10 mi
Weather by CustomWeather, © 2015

See weather overviewHow to use our weather pages